Saint Vigeans, United Kingdom

7:37 AM BST on April 29, 2017 (GMT +0100)
Saint Vigeans

Weather History for 03171 - October, 2012

Change the Weather History Date:

Sunday, October 7, 2012

  Actual Average Record
Temperature  
Mean Temperature 45 °F -  
Max Temperature 55 °F 52 °F - ()
Min Temperature 35 °F 41 °F - ()
Degree Days  
Heating Degree Days 20    
Moisture  
Dew Point 36 °F    
Average Humidity 70    
Maximum Humidity 87    
Minimum Humidity 38    
Precipitation  
Precipitation 0.00 in - - ()
Sea Level Pressure  
Sea Level Pressure 30.12 in    
Wind  
Wind Speed 7 mph ()    
Max Wind Speed 14 mph    
Max Gust Speed -    
Visibility 6.2 miles    
Events      
T = Trace of Precipitation, MM = Missing Value Source: Averaged Metar Reports

Daily Weather History Graph

Daily Weather History Graph

Search for Another Location

Airport or City:

Trip Planner

Search our weather history database for the weather conditions in past years. The results will help you decide how hot, cold, wet, or windy it might be!

Date:

Astronomy

Oct. 07, 2012 Rise Set
Actual Time 7:27 AM BST 6:29 PM BST
Civil Twilight 6:49 AM BST 7:07 PM BST
Nautical Twilight 6:06 AM BST 7:50 PM BST
Astronomical Twilight 5:21 AM BST 8:34 PM BST
Moon 10:40 PM BST (10/7) 2:44 PM BST (10/7)
Length of Visible Light 12h 17m
Length of Day
11h 02m
Waning Gibbous, 58% of the Moon is Illuminated
Oct 7
Waning Gibbous
Oct 8
Last Quarter
Oct 15
New
Oct 22
First Quarter
Oct 29
Full

Hourly Weather History & Observations

Time (BST) Temp. Windchill Dew Point Humidity Pressure Visibility Wind Dir Wind Speed Gust Speed Precip Events Conditions
12:50 AM 40 °F - 34 °F 72% 30.06 in 31 mi WSW 5.8 mph - -   Scattered Clouds
12:50 AM 39.2 °F 35.0 °F 33.8 °F 81% 30.04 in - WSW 5.8 mph - N/A   Clear
1:50 AM 42.8 °F 37.0 °F 33.8 °F 70% 30.06 in - WNW 10.4 mph - N/A   Clear
2:50 AM 37.4 °F 32.1 °F 33.8 °F 87% 30.04 in - WNW 6.9 mph - N/A   Clear
3:50 AM 39 °F - 34 °F 76% 30.08 in 28 mi WSW 13.8 mph - -   Scattered Clouds
3:50 AM 39.2 °F 31.2 °F 33.8 °F 81% 30.06 in - WSW 13.8 mph - N/A   Clear
4:50 AM 39.2 °F 31.6 °F 33.8 °F 81% 30.09 in - WSW 12.7 mph - N/A   Clear
5:50 AM 39.2 °F 32.5 °F 33.8 °F 81% 30.09 in 6.2 mi West 10.4 mph - N/A   Partly Cloudy
6:50 AM 38 °F - 33 °F 74% 30.11 in 28 mi West 8.1 mph - -   Scattered Clouds
6:50 AM 37.4 °F 31.4 °F 32.0 °F 81% 30.09 in 6.2 mi West 8.1 mph - N/A   Partly Cloudy
7:50 AM 39.2 °F 34.2 °F 32.0 °F 75% 30.09 in 6.2 mi West 6.9 mph - N/A   Partly Cloudy
8:50 AM 41.0 °F 36.4 °F 35.6 °F 81% 30.12 in 6.2 mi WSW 6.9 mph - N/A   Partly Cloudy
9:50 AM 45 °F - 35 °F 59% 30.16 in 31 mi West 8.1 mph - -   Scattered Clouds
9:50 AM 44.6 °F 40.2 °F 35.6 °F 71% 30.15 in 6.2 mi West 8.1 mph - N/A   Partly Cloudy
10:50 AM 48.2 °F - 37.4 °F 66% 30.15 in - WSW 9.2 mph - N/A   Clear
11:50 AM 51.8 °F - 35.6 °F 54% 30.18 in 6.2 mi West 12.7 mph - N/A   Partly Cloudy
12:50 PM 53 °F - 36 °F 41% 30.18 in 31 mi West 9.2 mph - -   Scattered Clouds
12:50 PM 53.6 °F - 35.6 °F 51% 30.15 in 6.2 mi West 9.2 mph - N/A   Partly Cloudy
1:50 PM 53.6 °F - 37.4 °F 54% 30.15 in 6.2 mi WSW 8.1 mph - N/A   Partly Cloudy
2:50 PM 55.4 °F - 35.6 °F 47% 30.15 in 6.2 mi WSW 5.8 mph - N/A   Partly Cloudy
3:50 PM 55 °F - 36 °F 38% 30.15 in 31 mi WNW 6.9 mph - -   Scattered Clouds
3:50 PM 55.4 °F - 37.4 °F 51% 30.15 in 6.2 mi WNW 6.9 mph - N/A   Partly Cloudy
4:50 PM 53.6 °F - 37.4 °F 54% 30.12 in 6.2 mi West 9.2 mph - N/A   Partly Cloudy
5:50 PM 50.0 °F - 39.2 °F 66% 30.12 in - WSW 8.1 mph - N/A   Clear
6:50 PM 46 °F - 40 °F 72% 30.15 in 28 mi WSW 3.5 mph - -   Scattered Clouds
6:50 PM 46.4 °F 45.2 °F 39.2 °F 76% 30.12 in - WSW 3.5 mph - N/A   Clear
7:50 PM 44.6 °F - 39.2 °F 81% 30.12 in - WNW 2.3 mph - N/A   Clear
8:50 PM 44.6 °F 40.2 °F 39.2 °F 81% 30.15 in - West 8.1 mph - N/A   Clear
9:50 PM 43 °F - 38 °F 77% 30.16 in 28 mi West 8.1 mph - -   Clear
9:50 PM 42.8 °F 38.0 °F 37.4 °F 81% 30.15 in - West 8.1 mph - N/A   Clear
10:50 PM 42.8 °F 37.5 °F 37.4 °F 81% 30.12 in - West 9.2 mph - N/A   Clear
11:50 PM 41.0 °F 35.2 °F 37.4 °F 87% 30.12 in - West 9.2 mph - N/A   Clear